• In Belgium
  • List of Countries
  • For 7 days
  • Water Temperature
  • Satellite Maps
  • Weather Map
  • Weather Widgets
  • user-avatar
    Login

    Hourly Weather Samborz

    Today, 16 July, Monday

    Time Temperature Precipitation Wind Pressure Humidity
    00:00 +18°C° 0 mm 1 mps 747 mmHg 73%
    01:00 +18°C° 0 mm 1 mps 747 mmHg 74%
    02:00 +16°C° 0 mm 1 mps 747 mmHg 76%
    03:00 +16°C° 0 mm 1 mps 747 mmHg 78%
    04:00 +15°C° 0 mm 1 mps 747 mmHg 80%
    05:00 +18°C° 0 mm 1 mps 747 mmHg 76%
    06:00 +20°C° 0 mm 1 mps 747 mmHg 72%
    07:00 +21°C° 0 mm 1 mps 747 mmHg 69%
    08:00 +23°C° 0 mm 2 mps 747 mmHg 64%
    09:00 +24°C° 0 mm 2 mps 747 mmHg 60%
    10:00 +26°C° 0 mm 2 mps 746 mmHg 55%
    11:00 +27°C° 0 mm 2 mps 746 mmHg 52%
    12:00 +27°C° 0 mm 3 mps 746 mmHg 49%
    13:00 +28°C° 0 mm 3 mps 745 mmHg 46%
    14:00 +28°C° 0 mm 3 mps 745 mmHg 46%
    15:00 +28°C° 0 mm 3 mps 745 mmHg 46%
    16:00 +28°C° 0 mm 3 mps 744 mmHg 46%
    17:00 +27°C° 0.1 mm 2 mps 744 mmHg 52%
    18:00 +26°C° 0.1 mm 2 mps 744 mmHg 59%
    19:00 +24°C° 0.1 mm 1 mps 744 mmHg 65%
    20:00 +23°C° 0 mm 1 mps 744 mmHg 68%
    21:00 +22°C° 0 mm 1 mps 744 mmHg 71%
    22:00 +20°C° 0 mm 1 mps 744 mmHg 74%
    23:00 +20°C° 0.1 mm 1 mps 744 mmHg 76%

    Tomorrow, 17 July, Tuesday

    Time Temperature Precipitation Wind Pressure Humidity
    00:00 +19°C° 0.1 mm 1 mps 744 mmHg 78%
    01:00 +19°C° 0.1 mm 1 mps 744 mmHg 80%
    02:00 +18°C° 0 mm 2 mps 744 mmHg 82%
    03:00 +17°C° 0 mm 2 mps 743 mmHg 84%
    04:00 +17°C° 0 mm 2 mps 743 mmHg 86%
    05:00 +18°C° 0.1 mm 2 mps 743 mmHg 84%
    06:00 +19°C° 0.1 mm 3 mps 743 mmHg 83%
    07:00 +20°C° 0.1 mm 3 mps 743 mmHg 81%
    08:00 +21°C° 0.3 mm 4 mps 743 mmHg 77%
    09:00 +22°C° 0.3 mm 5 mps 743 mmHg 74%
    10:00 +23°C° 0.3 mm 5 mps 744 mmHg 70%
    11:00 +23°C° 0.3 mm 6 mps 743 mmHg 68%
    12:00 +23°C° 0.3 mm 6 mps 743 mmHg 66%
    13:00 +24°C° 0.3 mm 6 mps 743 mmHg 64%
    14:00 +24°C° 0.1 mm 7 mps 743 mmHg 62%
    15:00 +24°C° 0.1 mm 7 mps 743 mmHg 60%
    16:00 +24°C° 0.1 mm 7 mps 743 mmHg 58%
    17:00 +24°C° 0 mm 6 mps 743 mmHg 62%
    18:00 +23°C° 0 mm 5 mps 743 mmHg 65%
    19:00 +22°C° 0 mm 4 mps 743 mmHg 68%
    20:00 +21°C° 0 mm 4 mps 743 mmHg 71%
    21:00 +20°C° 0 mm 4 mps 744 mmHg 74%
    22:00 +19°C° 0 mm 4 mps 744 mmHg 77%
    23:00 +19°C° 0 mm 4 mps 744 mmHg 81%

    Day after tomorrow, 18 July, Wednesday

    Time Temperature Precipitation Wind Pressure Humidity
    00:00 +18°C° 0 mm 4 mps 744 mmHg 84%
    01:00 +18°C° 0 mm 4 mps 744 mmHg 88%
    02:00 +17°C° 0 mm 4 mps 744 mmHg 88%
    03:00 +17°C° 0 mm 4 mps 744 mmHg 89%
    04:00 +17°C° 0 mm 4 mps 744 mmHg 89%
    05:00 +17°C° 0 mm 5 mps 744 mmHg 85%
    06:00 +19°C° 0 mm 5 mps 745 mmHg 80%
    07:00 +20°C° 0 mm 6 mps 745 mmHg 76%
    08:00 +21°C° 0 mm 6 mps 745 mmHg 70%
    09:00 +23°C° 0 mm 7 mps 745 mmHg 65%
    10:00 +24°C° 0 mm 7 mps 745 mmHg 60%
    11:00 +26°C° 0.1 mm 7 mps 745 mmHg 56%
    12:00 +27°C° 0.1 mm 7 mps 745 mmHg 53%
    13:00 +28°C° 0.1 mm 7 mps 745 mmHg 50%
    14:00 +28°C° 0.1 mm 6 mps 745 mmHg 50%
    15:00 +28°C° 0.1 mm 6 mps 745 mmHg 49%
    16:00 +28°C° 0.1 mm 6 mps 745 mmHg 49%
    17:00 +27°C° 0 mm 5 mps 745 mmHg 54%
    18:00 +26°C° 0 mm 4 mps 746 mmHg 59%
    19:00 +25°C° 0 mm 2 mps 746 mmHg 65%
    20:00 +23°C° 0 mm 2 mps 746 mmHg 67%
    21:00 +21°C° 0 mm 2 mps 747 mmHg 70%
    22:00 +20°C° 0 mm 2 mps 747 mmHg 72%
    23:00 +20°C° 0 mm 2 mps 747 mmHg 74%

    19 July, Thursday

    Time Temperature Precipitation Wind Pressure Humidity
    00:00 +19°C° 0 mm 2 mps 747 mmHg 77%
    01:00 +19°C° 0 mm 2 mps 747 mmHg 79%
    02:00 +18°C° 0 mm 2 mps 747 mmHg 81%
    03:00 +18°C° 0 mm 2 mps 747 mmHg 82%
    04:00 +18°C° 0 mm 2 mps 747 mmHg 84%
    05:00 +19°C° 0 mm 2 mps 748 mmHg 80%
    06:00 +20°C° 0 mm 3 mps 748 mmHg 76%
    07:00 +21°C° 0 mm 3 mps 748 mmHg 73%
    08:00 +22°C° 0 mm 3 mps 748 mmHg 67%
    09:00 +25°C° 0 mm 4 mps 748 mmHg 61%
    10:00 +26°C° 0 mm 4 mps 748 mmHg 55%
    11:00 +27°C° 0 mm 4 mps 748 mmHg 53%
    12:00 +27°C° 0 mm 4 mps 748 mmHg 51%
    13:00 +28°C° 0 mm 4 mps 748 mmHg 48%
    14:00 +28°C° 0 mm 3 mps 748 mmHg 47%
    15:00 +28°C° 0 mm 3 mps 748 mmHg 46%
    16:00 +28°C° 0 mm 3 mps 747 mmHg 45%
    17:00 +27°C° 0 mm 3 mps 747 mmHg 50%
    18:00 +26°C° 0 mm 2 mps 747 mmHg 55%
    19:00 +25°C° 0 mm 2 mps 747 mmHg 60%
    20:00 +23°C° 0 mm 1 mps 748 mmHg 63%
    21:00 +22°C° 0 mm 1 mps 748 mmHg 66%
    22:00 +20°C° 0 mm 1 mps 748 mmHg 69%
    23:00 +20°C° 0 mm 1 mps 748 mmHg 72%

    20 July, Friday

    Time Temperature Precipitation Wind Pressure Humidity
    00:00 +19°C° 0 mm 1 mps 748 mmHg 76%
    01:00 +18°C° 0 mm 1 mps 748 mmHg 79%
    02:00 +18°C° 0 mm 1 mps 748 mmHg 81%
    03:00 +16°C° 0 mm 1 mps 748 mmHg 84%
    04:00 +15°C° 0 mm 1 mps 748 mmHg 86%
    05:00 +18°C° 0 mm 1 mps 748 mmHg 80%
    06:00 +20°C° 0 mm 1 mps 748 mmHg 74%
    07:00 +21°C° 0 mm 1 mps 748 mmHg 68%
    08:00 +23°C° 0 mm 1 mps 748 mmHg 63%
    09:00 +24°C° 0 mm 1 mps 748 mmHg 57%
    10:00 +26°C° 0 mm 2 mps 748 mmHg 52%
    11:00 +27°C° 0 mm 2 mps 747 mmHg 49%
    12:00 +27°C° 0 mm 2 mps 747 mmHg 46%
    13:00 +28°C° 0 mm 2 mps 747 mmHg 43%
    14:00 +28°C° 0 mm 2 mps 746 mmHg 43%
    15:00 +28°C° 0 mm 2 mps 746 mmHg 43%
    16:00 +28°C° 0 mm 2 mps 746 mmHg 43%
    17:00 +27°C° 0 mm 2 mps 746 mmHg 49%
    18:00 +26°C° 0 mm 2 mps 745 mmHg 55%
    19:00 +25°C° 0 mm 2 mps 745 mmHg 60%
    20:00 +23°C° 0 mm 2 mps 745 mmHg 63%
    21:00 +21°C° 0 mm 3 mps 745 mmHg 65%
    22:00 +20°C° 0 mm 3 mps 745 mmHg 67%
    23:00 +19°C° 0 mm 2 mps 745 mmHg 68%

    21 July, Saturday

    Time Temperature Precipitation Wind Pressure Humidity
    00:00 +19°C° 0 mm 2 mps 745 mmHg 68%
    01:00 +18°C° 0 mm 2 mps 744 mmHg 68%
    02:00 +18°C° 0 mm 2 mps 744 mmHg 68%
    03:00 +18°C° 0 mm 2 mps 744 mmHg 69%
    04:00 +18°C° 0 mm 2 mps 744 mmHg 69%
    05:00 +19°C° 0 mm 2 mps 744 mmHg 66%
    06:00 +20°C° 0 mm 2 mps 744 mmHg 64%
    07:00 +21°C° 0 mm 2 mps 744 mmHg 62%
    08:00 +24°C° 0 mm 3 mps 743 mmHg 59%
    09:00 +25°C° 0 mm 3 mps 743 mmHg 56%
    10:00 +27°C° 0 mm 3 mps 743 mmHg 54%
    11:00 +27°C° 0.1 mm 3 mps 743 mmHg 54%
    12:00 +27°C° 0.1 mm 3 mps 743 mmHg 54%
    13:00 +28°C° 0.1 mm 3 mps 743 mmHg 54%
    14:00 +28°C° 0.4 mm 3 mps 742 mmHg 55%
    15:00 +28°C° 0.4 mm 3 mps 742 mmHg 56%
    16:00 +28°C° 0.4 mm 3 mps 742 mmHg 56%
    17:00 +27°C° 0.8 mm 3 mps 741 mmHg 63%
    18:00 +26°C° 0.8 mm 3 mps 741 mmHg 70%
    19:00 +24°C° 0.8 mm 2 mps 741 mmHg 77%
    20:00 +23°C° 0.3 mm 2 mps 741 mmHg 80%
    21:00 +21°C° 0.3 mm 2 mps 741 mmHg 83%
    22:00 +21°C° 0.3 mm 2 mps 741 mmHg 86%
    23:00 +20°C° 0.1 mm 2 mps 741 mmHg 87%
    Show more